Regional Weather Roundup
Issued by NWS

Home | Current Version | Previous Version | Graphics & Text | Print | Product List | Glossary Off
Versions: 1 2 3 4 5 6 7 8 9 10 11 12 13 14 15 16 17 18 19 20 21 22 23 24 25 26 27 28 29 30 31 32 33 34 35 36 37 38 39 40 41 42 43 44 45 46 47 48 49 50

000
ASUS43 KTOP 270959
RWRKS

WEATHER ROUNDUP FOR KANSAS
NATIONAL WEATHER SERVICE GOODLAND KS
500 AM CDT TUE SEP 27 2016

NOTE:  "FAIR" INDICATES FEW OR NO CLOUDS BELOW 12,000 FEET WITH NO
SIGNIFICANT WEATHER AND/OR OBSTRUCTIONS TO VISIBILITY.

KSZ001>006-013>018-027>032-041>047-271100-
NORTHWEST KANSAS

CITY           SKY/WX    TMP DP  RH WIND       PRES   REMARKS
GOODLAND       CLEAR     49  40  71 CALM      30.18F
HAYS           CLEAR     45  34  65 W6        30.10F
HILL CITY      CLEAR     48  43  82 W6        30.12S
RUSSELL        CLEAR     50  43  77 SW9       30.08F
$$

KSZ061>065-074>080-084>089-271100-
SOUTHWEST KANSAS

CITY           SKY/WX    TMP DP  RH WIND       PRES   REMARKS
DODGE CITY     CLEAR     53  37  54 SW9       30.15F
ELKHART          N/A     56  34  43 SW12        N/A
GARDEN CITY    CLEAR     47  35  63 W8        30.15F
GREAT BEND     CLEAR     52  37  58 SW9       30.11S
LIBERAL        CLEAR     54  36  50 W9        30.18F
$$

KSZ066>073-081>083-090>101-271100-
SOUTHEAST KANSAS

CITY           SKY/WX    TMP DP  RH WIND       PRES   REMARKS
CHANUTE        CLEAR     52  47  83 SW8       30.11S
COFFEYVILLE    CLEAR     49  48  97 CALM      30.13S
HUTCHINSON     CLEAR     56  45  66 SW7       30.12F
MEDICINE LODGE   N/A     50  47  89 CALM      30.14F
NEWTON         CLEAR    N/A N/A N/A SW9       30.12
PARSONS        CLEAR     47  45  93 CALM      30.13F
WICHITA INTL   CLEAR     54  46  74 SW6       30.12S
WICHITA JABRA  CLEAR     57  45  64 SW9       30.12S
WINFIELD       CLEAR     53  48  83 CALM      30.14F
$$

KSZ007>012-019>026-033>040-048>060-102>105-271100-
NORTHEAST KANSAS

CITY           SKY/WX    TMP DP  RH WIND       PRES   REMARKS
CONCORDIA      CLEAR     54  45  71 SW9       30.07F
EMPORIA        CLEAR     51  46  83 S5        30.09F
LAWRENCE       CLEAR     47  47 100 NW3       30.08S
MANHATTAN      CLEAR     51  48  89 SW6       30.09S
OLATHE IND     CLEAR     53  47  79 SW6       30.09S
OLATHE EXE     CLEAR     54  45  71 SW6       30.08S
SALINA         CLEAR     53  45  74 S5        30.09F
TOPEKA BILLARD CLEAR     51  47  86 CALM      30.08S
TOPEKA FORBES  CLEAR     52  48  86 CALM      30.07F
$$




USA.gov is the U.S. government's official web portal to all federal, state and local government web resources and services.